Miscellaneous Local Product
Issued by NWS Hastings, NE

Home | Current Version | Previous Version | Graphics & Text | Print | Product List | Glossary On
Versions: 1 2 3 4 5 6 7 8 9 10 11 12 13 14 15 16 17 18 19 20 21 22 23 24 25 26 27 28 29 30 31 32 33 34 35 36 37 38 39 40 41 42 43 44 45 46 47 48 49 50
841
AXUS43 KGID 041002
MISGRI

GID CWA HOURLY WEATHER ROUNDUP
NATIONAL WEATHER SERVICE HASTINGS NE
500 AM CDT WED MAY 04 2016

NOTE: "FAIR" INDICATES FEW OR NO CLOUDS BELOW 12,000 FEET WITH NO
SIGNIFICANT WEATHER AND/OR OBSTRUCTIONS TO VISIBILITY.

...SOUTH CENTRAL NEBRASKA...

CITY           SKY/WX    TMP DP  RH WIND       PRES   REMARKS
GRAND ISLAND   PTCLDY    49  41  74 NW10      30.03R
HASTINGS       CLEAR     48  41  76 N9        30.01S
KEARNEY        CLEAR     46  39  76 NW8       30.05R
ORD            CLEAR     44  41  89 N10       30.05R
YORK           CLEAR     46  41  81 NW10      30.00R
AURORA         CLEAR     49  41  74 N9        30.01R
LEXINGTON      CLEAR     44  40  85 W8        30.07R
HOLDREGE       CLEAR     48  40  73 NW7       30.05R
HEBRON         CLEAR     53  45  74 NW8       29.98R

...NEBRASKA PANHANDLE...

CITY           SKY/WX    TMP DP  RH WIND       PRES   REMARKS
CHADRON        CLEAR     41  38  89 SW6       30.15R
ALLIANCE       CLEAR     36  35  96 W8        30.15S WCI  30
SCOTTSBLUFF    CLEAR     44  39  82 NW10      30.18S
SIDNEY         CLEAR     39  35  86 NW6       30.18F WCI  35

...WESTERN AND NORTH CENTRAL NEBRASKA...

CITY           SKY/WX    TMP DP  RH WIND       PRES   REMARKS
VALENTINE      CLEAR     41  36  82 NW7       30.11R
AINSWORTH      CLEAR     46  39  76 NW5       30.10S
ONEILL         CLEAR     44  35  69 NW8       30.06S
BROKEN BOW     CLEAR     45  40  82 N9        30.07R
IMPERIAL       CLEAR     48  38  68 NW10      30.13S
NORTH PLATTE   CLEAR     42  39  89 NW5       30.11R
MCCOOK         CLEAR     44  39  82 W10       30.08S

...EASTERN NEBRASKA...

CITY           SKY/WX    TMP DP  RH WIND       PRES   REMARKS
NORFOLK        CLEAR     48  33  56 NW10      30.00R
SO SIOUX CITY  CLEAR     44  34  67 NW9       29.96R
TEKAMAH        CLEAR     48  35  60 N6        29.95R
COLUMBUS       CLEAR     48  34  57 NW9       30.00S
ALBION         CLEAR     41  37  85 NW7       30.03R
OMAHA EPPLEY   CLEAR     49  39  68 N7        29.93R
OFFUTT AFB     CLEAR     54  35  48 NW10      29.91R
MILLARD        CLEAR     53  36  52 NW8       29.93R
LINCOLN        CLEAR     52  40  63 NW8       29.97R
NEBRASKA CITY  CLEAR     53  38  56 NW14      29.91R
BEATRICE       CLEAR     47  43  85 NW8       29.96R
FALLS CITY     CLEAR     51  43  74 NW8       29.89R

...NORTHERN KANSAS...

CITY           SKY/WX    TMP DP  RH WIND       PRES   REMARKS
GOODLAND       CLEAR     42  34  73 W10       30.15S
HILL CITY      CLEAR     47  40  76 W8        30.06S
NORTON         SUNNY     48  36  61 W13G18    30.05
PHILLIPSBURG   CLEAR     48  41  76 CALM      30.05R
SMITH CENTER   CLEAR     45  41  87 NW9       30.03R
BELOIT         CLEAR     46  43  87 W6        29.99R
HAYS           CLEAR     45  36  70 W8        30.03F
RUSSELL        CLEAR     47  43  86 W10       30.00S
CONCORDIA      CLEAR     49  43  80 NW9       29.97S
SALINA         CLEAR     54  45  71 W5        29.96F
TOPEKA         CLEAR     53  45  74 W8        29.90R



USA.gov is the U.S. government's official web portal to all federal, state and local government web resources and services.